Location: *
(50.2903°S, 172.5375°W)
Time: 16:18:18
(UTC+00:00)

Cosmos 1328 - Pass Details

Date: 17 November 2019
Orbit: 534 x 551 km, 82.5° (Epoch: 15 December)

Event Time Altitude Azimuth Distance (km) Brightness Sun altitude
Rises 13:47:14 0° 191° (S) 2,777 8.1 -13.0°
Reaches altitude 10° 13:49:26 10° 191° (S) 1,873 7.1 -12.8°
Maximum altitude 13:53:34 86° 278° (W) 571 3.8 -12.4°
Drops below altitude 10° 13:57:38 10° 7° (N) 1,839 6.1 -12.0°
Enters shadow 13:57:57 - 7° (N) 1,969 6.2 -12.0°
